QPF
0.05 0.04 0.03 0.03 0.03 0.04 0.04 0.03 0.02 0.02 0.02 0.03 0.02 0.02 0.02 0.03 0.03 0.03 0.05 0.05 0.04 0.03 0.03 0.03 0.03 0.03 0.03 0.04 0.04 0.03 0.02 0.02 0.02 0.02 0.02 0.02 0.02 0.02 0.02 0.02 0.02 0.02 0.01
0.05 0.04 0.04 0.04 0.04 0.04 0.04 0.03 0.03 0.03 0.02 0.02 0.02 0.02 0.02 0.02 0.03 0.04 0.04 0.04 0.04 0.02 0.02 0.02 0.03 0.04 0.04 0.04 0.04 0.04 0.03 0.03 0.02 0.02 0.02 0.02 0.02 0.02 0.02 0.02 0.02 0.02 0.01
0.05 0.04 0.05 0.05 0.05 0.04 0.04 0.04 0.04 0.03 0.02 0.02 0.02 0.02 0.02 0.02 0.03 0.04 0.04 0.04 0.04 0.03 0.03 0.02 0.02 0.03 0.05 0.04 0.05 0.04 0.03 0.03 0.03 0.02 0.03 0.03 0.02 0.02 0.02 0.02 0.02 0.01 0.02
0.07 0.05 0.05 0.05 0.04 0.04 0.04 0.04 0.04 0.04 0.03 0.03 0.02 0.01 0.01 0.01 0.02 0.03 0.03 0.03 0.03 0.03 0.03 0.03 0.03 0.03 0.04 0.04 0.04 0.05 0.04 0.03 0.03 0.02 0.02 0.03 0.03 0.03 0.02 0.02 0.02 0.02 0.02
0.09 0.07 0.06 0.05 0.04 0.04 0.03 0.03 0.03 0.03 0.03 0.03 0.02 0.02 0.01 0.01 0.02 0.02 0.03 0.04 0.03 0.04 0.05 0.05 0.04 0.04 0.03 0.03 0.04 0.05 0.05 0.04 0.03 0.03 0.02 0.02 0.04 0.04 0.04 0.03 0.02 0.02 0.02
0.13 0.12 0.10 0.09 0.06 0.05 0.03 0.03 0.02 0.03 0.03 0.04 0.04 0.03 0.02 0.02 0.02 0.02 0.03 0.04 0.05 0.05 0.05 0.06 0.06 0.05 0.04 0.03 0.03 0.04 0.06 0.05 0.03 0.03 0.03 0.03 0.04 0.04 0.04 0.04 0.04 0.03 0.02
0.10 0.10 0.10 0.11 0.09 0.07 0.04 0.03 0.03 0.03 0.03 0.03 0.05 0.06 0.05 0.04 0.03 0.03 0.02 0.03 0.03 0.04 0.04 0.04 0.06 0.05 0.04 0.03 0.03 0.03 0.06 0.07 0.05 0.04 0.03 0.04 0.05 0.05 0.04 0.04 0.04 0.04 0.03
0.08 0.07 0.09 0.11 0.11 0.10 0.08 0.05 0.04 0.04 0.04 0.04 0.04 0.05 0.06 0.06 0.05 0.04 0.03 0.02 0.02 0.03 0.03 0.03 0.04 0.06 0.06 0.04 0.03 0.03 0.04 0.07 0.07 0.05 0.04 0.04 0.06 0.08 0.06 0.04 0.04 0.05 0.05
0.08 0.06 0.08 0.10 0.11 0.11 0.10 0.08 0.06 0.05 0.05 0.05 0.05 0.05 0.06 0.05 0.04 0.03 0.03 0.03 0.03 0.03 0.04 0.04 0.05 0.06 0.07 0.06 0.04 0.03 0.03 0.06 0.09 0.07 0.06 0.06 0.05 0.07 0.09 0.06 0.05 0.05 0.05
0.08 0.06 0.07 0.08 0.09 0.09 0.08 0.08 0.08 0.06 0.06 0.06 0.06 0.05 0.05 0.04 0.04 0.04 0.03 0.03 0.03 0.03 0.03 0.05 0.05 0.05 0.06 0.08 0.06 0.05 0.04 0.05 0.09 0.10 0.07 0.06 0.05 0.05 0.08 0.10 0.09 0.07 0.06
0.06 0.06 0.05 0.07 0.08 0.08 0.07 0.07 0.07 0.06 0.06 0.07 0.07 0.06 0.04 0.03 0.03 0.04 0.03 0.03 0.02 0.02 0.02 0.04 0.05 0.06 0.05 0.06 0.08 0.08 0.07 0.06 0.11 0.11 0.09 0.06 0.06 0.06 0.06 0.08 0.11 0.09 0.08
0.07 0.05 0.05 0.06 0.07 0.06 0.06 0.06 0.05 0.04 0.05 0.06 0.06 0.06 0.06 0.05 0.04 0.04 0.04 0.03 0.03 0.03 0.03 0.03 0.05 0.06 0.06 0.07 0.08 0.11 0.13 0.18 0.15 0.11 0.10 0.06 0.05 0.06 0.06 0.06 0.08 0.10 0.10
0.08 0.06 0.06 0.05 0.06 0.06 0.05 0.05 0.05 0.04 0.04 0.05 0.06 0.06 0.05 0.05 0.05 0.04 0.04 0.04 0.03 0.03 0.04 0.04 0.04 0.06 0.06 0.07 0.09 0.14 0.21 0.22 0.12 0.08 0.11 0.08 0.05 0.04 0.05 0.07 0.08 0.08 0.11
0.07 0.06 0.07 0.06 0.07 0.07 0.06 0.05 0.05 0.04 0.03 0.03 0.04 0.04 0.05 0.04 0.04 0.04 0.05 0.05 0.05 0.03 0.03 0.04 0.05 0.05 0.08 0.09 0.12 0.17 0.17 0.16 0.15 0.10 0.09 0.09 0.06 0.04 0.03 0.05 0.08 0.10 0.12
0.08 0.08 0.08 0.08 0.09 0.10 0.09 0.08 0.06 0.04 0.03 0.03 0.03 0.03 0.03 0.04 0.03 0.03 0.03 0.04 0.04 0.04 0.03 0.03 0.05 0.06 0.06 0.09 0.08 0.07 0.08 0.11 0.13 0.12 0.10 0.10 0.09 0.06 0.04 0.04 0.05 0.08 0.11
0.10 0.09 0.08 0.08 0.10 0.10 0.09 0.08 0.08 0.05 0.03 0.03 0.03 0.03 0.03 0.03 0.03 0.02 0.02 0.03 0.03 0.04 0.04 0.03 0.03 0.04 0.05 0.06 0.05 0.03 0.04 0.05 0.07 0.09 0.11 0.12 0.12 0.10 0.06 0.05 0.04 0.05 0.07
0.12 0.11 0.08 0.07 0.09 0.10 0.09 0.08 0.08 0.08 0.05 0.04 0.04 0.04 0.03 0.02 0.03 0.02 0.02 0.03 0.03 0.04 0.04 0.03 0.03 0.03 0.04 0.05 0.05 0.04 0.03 0.03 0.04 0.07 0.10 0.12 0.12 0.13 0.09 0.06 0.04 0.04 0.05
0.11 0.12 0.12 0.09 0.07 0.08 0.08 0.07 0.07 0.09 0.08 0.05 0.04 0.05 0.04 0.04 0.04 0.03 0.03 0.03 0.03 0.03 0.04 0.04 0.03 0.03 0.03 0.04 0.05 0.05 0.05 0.05 0.04 0.06 0.09 0.13 0.12 0.13 0.12 0.08 0.05 0.04 0.04
0.11 0.11 0.14 0.12 0.08 0.07 0.06 0.06 0.07 0.07 0.08 0.08 0.05 0.05 0.05 0.05 0.05 0.04 0.03 0.03 0.03 0.03 0.04 0.04 0.03 0.03 0.03 0.03 0.05 0.06 0.05 0.06 0.06 0.07 0.09 0.11 0.14 0.13 0.12 0.09 0.06 0.05 0.04
0.10 0.09 0.11 0.13 0.10 0.08 0.06 0.05 0.05 0.05 0.05 0.07 0.07 0.07 0.06 0.05 0.06 0.05 0.05 0.04 0.04 0.04 0.04 0.04 0.04 0.04 0.04 0.04 0.04 0.05 0.06 0.07 0.07 0.08 0.09 0.10 0.11 0.13 0.12 0.09 0.07 0.05 0.04
0.08 0.09 0.10 0.10 0.11 0.10 0.08 0.06 0.04 0.04 0.04 0.05 0.06 0.06 0.06 0.06 0.06 0.06 0.05 0.05 0.04 0.04 0.04 0.04 0.05 0.04 0.04 0.05 0.05 0.05 0.05 0.06 0.08 0.08 0.09 0.09 0.09 0.08 0.08 0.07 0.06 0.05 0.04
0.09 0.09 0.12 0.11 0.10 0.10 0.10 0.07 0.05 0.05 0.04 0.05 0.05 0.05 0.05 0.05 0.05 0.06 0.06 0.06 0.06 0.06 0.05 0.05 0.05 0.05 0.05 0.05 0.04 0.04 0.05 0.06 0.07 0.08 0.08 0.09 0.08 0.07 0.06 0.05 0.05 0.05 0.05
0.09 0.09 0.11 0.12 0.11 0.11 0.11 0.09 0.08 0.06 0.06 0.05 0.04 0.04 0.04 0.04 0.04 0.05 0.05 0.06 0.05 0.06 0.07 0.06 0.06 0.06 0.05 0.06 0.05 0.05 0.05 0.05 0.06 0.06 0.07 0.08 0.08 0.07 0.06 0.05 0.06 0.05 0.05
0.08 0.08 0.08 0.10 0.11 0.11 0.11 0.11 0.11 0.09 0.08 0.07 0.05 0.05 0.05 0.05 0.04 0.05 0.05 0.05 0.05 0.05 0.05 0.06 0.06 0.06 0.06 0.05 0.06 0.06 0.06 0.06 0.07 0.07 0.07 0.08 0.07 0.07 0.06 0.05 0.05 0.04 0.03
0.08 0.07 0.06 0.07 0.09 0.10 0.11 0.10 0.10 0.10 0.11 0.10 0.09 0.08 0.06 0.05 0.05 0.05 0.05 0.04 0.04 0.04 0.05 0.06 0.06 0.07 0.07 0.06 0.07 0.07 0.08 0.08 0.08 0.07 0.07 0.07 0.06 0.05 0.05 0.05 0.04 0.04 0.03
0.06 0.06 0.06 0.06 0.07 0.07 0.09 0.08 0.08 0.08 0.09 0.10 0.10 0.09 0.07 0.05 0.05 0.05 0.05 0.05 0.05 0.05 0.05 0.05 0.06 0.06 0.06 0.05 0.06 0.06 0.07 0.07 0.07 0.06 0.05 0.05 0.05 0.05 0.06 0.06 0.05 0.04 0.03
MSLP
1014.15 1014.32 1014.43 1014.50 1014.55 1014.62 1014.70 1014.81 1014.94 1015.06 1015.16 1015.23 1015.27 1015.27 1015.25 1015.21 1015.17 1015.11 1015.04 1014.96 1014.84 1014.70 1014.52 1014.33 1014.13 1013.94 1013.77 1013.63 1013.51 1013.42 1013.34 1013.28 1013.24 1013.23 1013.27 1013.35 1013.50 1013.72 1013.98 1014.28 1014.58 1014.88 1015.15
1014.05 1014.22 1014.34 1014.43 1014.50 1014.59 1014.69 1014.82 1014.95 1015.08 1015.18 1015.24 1015.26 1015.23 1015.18 1015.11 1015.03 1014.94 1014.85 1014.75 1014.63 1014.50 1014.34 1014.17 1013.99 1013.80 1013.63 1013.46 1013.31 1013.17 1013.04 1012.93 1012.84 1012.80 1012.81 1012.89 1013.04 1013.26 1013.54 1013.86 1014.19 1014.53 1014.85
1013.98 1014.14 1014.27 1014.38 1014.47 1014.58 1014.71 1014.84 1014.98 1015.10 1015.19 1015.23 1015.23 1015.18 1015.10 1015.00 1014.88 1014.77 1014.65 1014.54 1014.42 1014.30 1014.15 1014.00 1013.84 1013.67 1013.49 1013.30 1013.11 1012.93 1012.75 1012.59 1012.46 1012.37 1012.34 1012.39 1012.51 1012.72 1012.99 1013.31 1013.67 1014.03 1014.39
1013.94 1014.11 1014.24 1014.37 1014.49 1014.62 1014.76 1014.89 1015.02 1015.13 1015.19 1015.21 1015.18 1015.10 1014.99 1014.86 1014.71 1014.58 1014.44 1014.32 1014.20 1014.07 1013.95 1013.81 1013.66 1013.50 1013.32 1013.12 1012.91 1012.69 1012.46 1012.25 1012.07 1011.92 1011.85 1011.84 1011.92 1012.09 1012.32 1012.63 1012.97 1013.35 1013.73
1013.94 1014.11 1014.26 1014.41 1014.55 1014.69 1014.83 1014.95 1015.06 1015.14 1015.17 1015.15 1015.09 1014.98 1014.85 1014.69 1014.53 1014.37 1014.22 1014.08 1013.95 1013.83 1013.71 1013.58 1013.44 1013.29 1013.11 1012.90 1012.67 1012.42 1012.16 1011.91 1011.67 1011.47 1011.33 1011.26 1011.28 1011.38 1011.55 1011.81 1012.12 1012.47 1012.86
1013.94 1014.12 1014.29 1014.46 1014.62 1014.77 1014.90 1015.01 1015.09 1015.13 1015.12 1015.07 1014.98 1014.85 1014.69 1014.52 1014.34 1014.17 1014.00 1013.85 1013.71 1013.58 1013.46 1013.32 1013.19 1013.03 1012.85 1012.64 1012.40 1012.13 1011.85 1011.55 1011.27 1011.02 1010.81 1010.67 1010.61 1010.62 1010.72 1010.90 1011.15 1011.46 1011.82
1013.90 1014.10 1014.30 1014.49 1014.67 1014.83 1014.96 1015.05 1015.10 1015.10 1015.06 1014.98 1014.87 1014.72 1014.55 1014.38 1014.19 1014.01 1013.83 1013.66 1013.50 1013.35 1013.20 1013.06 1012.91 1012.74 1012.56 1012.34 1012.09 1011.81 1011.51 1011.19 1010.87 1010.57 1010.31 1010.10 1009.95 1009.88 1009.89 1009.97 1010.14 1010.38 1010.69
1013.76 1014.00 1014.23 1014.46 1014.67 1014.84 1014.97 1015.05 1015.08 1015.06 1015.00 1014.90 1014.78 1014.63 1014.47 1014.30 1014.11 1013.92 1013.72 1013.52 1013.33 1013.14 1012.96 1012.79 1012.61 1012.43 1012.23 1012.00 1011.75 1011.46 1011.14 1010.81 1010.47 1010.14 1009.83 1009.56 1009.35 1009.19 1009.11 1009.10 1009.17 1009.32 1009.56
1013.52 1013.80 1014.08 1014.35 1014.59 1014.79 1014.92 1015.01 1015.03 1015.01 1014.95 1014.86 1014.74 1014.61 1014.46 1014.30 1014.11 1013.91 1013.69 1013.45 1013.22 1012.98 1012.75 1012.53 1012.32 1012.10 1011.87 1011.63 1011.36 1011.06 1010.74 1010.40 1010.05 1009.70 1009.37 1009.06 1008.79 1008.57 1008.41 1008.31 1008.28 1008.35 1008.50
1013.18 1013.51 1013.84 1014.16 1014.43 1014.66 1014.82 1014.92 1014.96 1014.95 1014.90 1014.83 1014.75 1014.64 1014.52 1014.37 1014.18 1013.96 1013.71 1013.44 1013.15 1012.85 1012.56 1012.28 1012.01 1011.75 1011.48 1011.21 1010.92 1010.60 1010.27 1009.93 1009.57 1009.22 1008.88 1008.56 1008.27 1008.01 1007.78 1007.61 1007.50 1007.47 1007.54
1012.78 1013.15 1013.53 1013.89 1014.21 1014.47 1014.66 1014.78 1014.85 1014.87 1014.85 1014.82 1014.77 1014.70 1014.60 1014.46 1014.28 1014.04 1013.76 1013.43 1013.09 1012.73 1012.37 1012.02 1011.69 1011.37 1011.05 1010.73 1010.41 1010.07 1009.72 1009.37 1009.01 1008.67 1008.33 1008.01 1007.71 1007.43 1007.18 1006.96 1006.78 1006.67 1006.65
1012.34 1012.75 1013.17 1013.57 1013.92 1014.21 1014.43 1014.58 1014.68 1014.73 1014.76 1014.77 1014.76 1014.72 1014.64 1014.52 1014.33 1014.08 1013.76 1013.39 1012.99 1012.57 1012.15 1011.73 1011.34 1010.95 1010.58 1010.20 1009.83 1009.45 1009.07 1008.69 1008.33 1007.98 1007.66 1007.36 1007.07 1006.79 1006.53 1006.28 1006.06 1005.89 1005.79
1011.89 1012.33 1012.77 1013.19 1013.57 1013.88 1014.12 1014.30 1014.43 1014.52 1014.59 1014.63 1014.66 1014.65 1014.59 1014.48 1014.28 1014.01 1013.67 1013.26 1012.81 1012.35 1011.87 1011.41 1010.95 1010.51 1010.07 1009.63 1009.19 1008.75 1008.32 1007.91 1007.52 1007.16 1006.85 1006.56 1006.29 1006.03 1005.78 1005.53 1005.29 1005.07 1004.91
1011.41 1011.87 1012.33 1012.76 1013.14 1013.46 1013.72 1013.92 1014.07 1014.19 1014.29 1014.37 1014.43 1014.44 1014.40 1014.29 1014.09 1013.80 1013.44 1013.01 1012.54 1012.05 1011.55 1011.05 1010.55 1010.05 1009.55 1009.04 1008.53 1008.01 1007.51 1007.03 1006.60 1006.22 1005.89 1005.61 1005.36 1005.13 1004.90 1004.66 1004.41 1004.17 1003.97
1010.90 1011.35 1011.81 1012.24 1012.62 1012.95 1013.21 1013.42 1013.60 1013.74 1013.87 1013.97 1014.05 1014.07 1014.04 1013.93 1013.73 1013.44 1013.07 1012.65 1012.18 1011.68 1011.18 1010.67 1010.14 1009.61 1009.05 1008.47 1007.87 1007.27 1006.68 1006.12 1005.62 1005.19 1004.84 1004.55 1004.32 1004.11 1003.90 1003.68 1003.44 1003.20 1002.97
1010.31 1010.76 1011.20 1011.62 1012.00 1012.32 1012.59 1012.81 1013.00 1013.17 1013.31 1013.43 1013.51 1013.55 1013.52 1013.41 1013.21 1012.93 1012.58 1012.18 1011.73 1011.27 1010.79 1010.29 1009.76 1009.21 1008.61 1007.96 1007.28 1006.58 1005.89 1005.24 1004.65 1004.16 1003.76 1003.45 1003.21 1003.02 1002.83 1002.64 1002.43 1002.19 1001.97
1009.62 1010.06 1010.49 1010.90 1011.27 1011.59 1011.87 1012.10 1012.31 1012.49 1012.64 1012.77 1012.87 1012.90 1012.87 1012.76 1012.58 1012.31 1011.99 1011.63 1011.24 1010.82 1010.39 1009.93 1009.42 1008.86 1008.23 1007.53 1006.78 1005.98 1005.19 1004.44 1003.76 1003.19 1002.73 1002.39 1002.13 1001.94 1001.77 1001.61 1001.42 1001.22 1001.01
1008.84 1009.27 1009.70 1010.10 1010.47 1010.80 1011.08 1011.33 1011.55 1011.75 1011.91 1012.05 1012.14 1012.17 1012.14 1012.04 1011.86 1011.63 1011.35 1011.04 1010.71 1010.36 1009.99 1009.58 1009.11 1008.56 1007.92 1007.18 1006.36 1005.49 1004.60 1003.75 1002.99 1002.34 1001.82 1001.43 1001.15 1000.95 1000.79 1000.65 1000.50 1000.34 1000.17
1008.01 1008.44 1008.86 1009.27 1009.64 1009.98 1010.28 1010.54 1010.78 1010.98 1011.16 1011.29 1011.38 1011.40 1011.36 1011.26 1011.10 1010.89 1010.66 1010.41 1010.15 1009.87 1009.57 1009.22 1008.80 1008.27 1007.62 1006.86 1005.99 1005.06 1004.10 1003.18 1002.34 1001.62 1001.04 1000.60 1000.30 1000.09 999.95 999.83 999.72 999.60 999.49
1007.21 1007.63 1008.06 1008.46 1008.84 1009.19 1009.50 1009.78 1010.02 1010.23 1010.40 1010.53 1010.60 1010.61 1010.56 1010.46 1010.31 1010.13 1009.94 1009.75 1009.55 1009.35 1009.11 1008.82 1008.43 1007.93 1007.29 1006.51 1005.62 1004.65 1003.65 1002.67 1001.78 1001.01 1000.39 999.92 999.60 999.38 999.25 999.16 999.08 999.02 998.96
1006.52 1006.93 1007.35 1007.75 1008.13 1008.48 1008.79 1009.07 1009.31 1009.51 1009.66 1009.77 1009.81 1009.80 1009.74 1009.63 1009.49 1009.34 1009.19 1009.04 1008.90 1008.75 1008.57 1008.32 1007.97 1007.48 1006.85 1006.07 1005.17 1004.19 1003.17 1002.17 1001.26 1000.47 999.83 999.35 999.02 998.81 998.69 998.63 998.59 998.58 998.58
1006.00 1006.39 1006.79 1007.18 1007.54 1007.87 1008.17 1008.43 1008.64 1008.81 1008.93 1009.00 1009.02 1008.98 1008.90 1008.79 1008.66 1008.53 1008.41 1008.30 1008.20 1008.08 1007.93 1007.70 1007.36 1006.89 1006.26 1005.49 1004.59 1003.61 1002.60 1001.61 1000.71 999.94 999.31 998.85 998.53 998.34 998.25 998.22 998.23 998.26 998.32
1005.69 1006.06 1006.42 1006.77 1007.09 1007.38 1007.63 1007.84 1008.01 1008.13 1008.20 1008.23 1008.21 1008.15 1008.05 1007.94 1007.82 1007.71 1007.61 1007.52 1007.44 1007.34 1007.20 1006.97 1006.62 1006.14 1005.50 1004.73 1003.84 1002.88 1001.90 1000.96 1000.10 999.37 998.80 998.38 998.11 997.95 997.90 997.91 997.96 998.05 998.16
1005.60 1005.91 1006.22 1006.51 1006.76 1006.98 1007.16 1007.30 1007.40 1007.45 1007.47 1007.45 1007.39 1007.31 1007.21 1007.10 1007.00 1006.90 1006.83 1006.76 1006.68 1006.57 1006.40 1006.14 1005.76 1005.24 1004.59 1003.81 1002.93 1002.00 1001.07 1000.19 999.42 998.77 998.27 997.93 997.73 997.64 997.64 997.70 997.81 997.94 998.10
1005.68 1005.93 1006.16 1006.36 1006.53 1006.65 1006.74 1006.79 1006.80 1006.78 1006.73 1006.67 1006.59 1006.50 1006.40 1006.31 1006.24 1006.17 1006.11 1006.04 1005.95 1005.81 1005.60 1005.28 1004.84 1004.27 1003.58 1002.79 1001.92 1001.03 1000.17 999.37 998.69 998.15 997.76 997.52 997.41 997.41 997.49 997.62 997.78 997.96 998.16
1005.86 1006.03 1006.18 1006.28 1006.34 1006.36 1006.34 1006.29 1006.22 1006.13 1006.03 1005.93 1005.84 1005.75 1005.69 1005.63 1005.59 1005.55 1005.51 1005.43 1005.31 1005.13 1004.85 1004.45 1003.94 1003.30 1002.56 1001.75 1000.89 1000.05 999.25 998.56 997.99 997.58 997.32 997.20 997.21 997.31 997.47 997.67 997.89 998.12 998.35
Thickness
5630 5631 5632 5632 5633 5633 5634 5635 5635 5636 5637 5638 5639 5641 5642 5643 5644 5645 5647 5648 5649 5650 5651 5652 5653 5653 5654 5653 5653 5653 5653 5653 5652 5651 5650 5649 5647 5646 5645 5643 5642 5640 5639
5618 5620 5620 5621 5622 5623 5624 5625 5625 5626 5627 5628 5630 5631 5632 5634 5636 5637 5638 5640 5641 5642 5643 5644 5645 5646 5646 5646 5646 5646 5646 5645 5645 5644 5643 5642 5641 5640 5639 5638 5636 5635 5633
5608 5609 5609 5610 5610 5611 5613 5614 5615 5615 5616 5618 5619 5621 5623 5625 5627 5628 5629 5631 5632 5633 5635 5636 5637 5638 5639 5639 5639 5638 5638 5638 5637 5637 5636 5635 5634 5634 5633 5632 5631 5629 5628
5598 5598 5599 5599 5599 5600 5601 5603 5604 5604 5605 5606 5607 5610 5612 5615 5617 5619 5620 5622 5623 5625 5626 5628 5629 5630 5631 5631 5631 5631 5630 5630 5629 5629 5628 5628 5627 5627 5626 5626 5624 5623 5622
5589 5588 5588 5589 5588 5589 5590 5591 5592 5592 5593 5594 5595 5598 5602 5605 5607 5610 5612 5614 5615 5616 5617 5619 5620 5621 5622 5623 5623 5622 5622 5622 5621 5621 5621 5621 5620 5620 5619 5619 5618 5617 5616
5579 5578 5578 5578 5578 5578 5579 5579 5580 5581 5581 5582 5584 5587 5591 5594 5598 5601 5603 5605 5606 5608 5609 5610 5612 5613 5613 5614 5614 5614 5613 5613 5613 5613 5613 5613 5613 5613 5613 5612 5612 5611 5610
5568 5568 5567 5567 5568 5568 5568 5568 5568 5569 5570 5570 5571 5574 5580 5583 5587 5591 5593 5595 5597 5599 5601 5602 5603 5604 5605 5605 5605 5605 5605 5605 5605 5605 5605 5605 5606 5606 5605 5605 5605 5604 5603
5559 5558 5558 5557 5557 5557 5556 5557 5557 5557 5558 5558 5557 5559 5565 5572 5577 5581 5582 5585 5587 5589 5591 5593 5594 5595 5596 5596 5596 5596 5596 5596 5596 5597 5597 5597 5598 5598 5599 5598 5598 5598 5596
5549 5549 5548 5547 5546 5546 5546 5546 5546 5547 5547 5546 5546 5547 5550 5558 5563 5570 5573 5575 5577 5579 5581 5583 5584 5585 5586 5587 5588 5587 5587 5587 5587 5588 5589 5589 5590 5590 5591 5591 5591 5591 5589
5538 5538 5537 5536 5536 5535 5535 5535 5536 5536 5538 5538 5536 5537 5539 5543 5546 5556 5563 5565 5566 5568 5570 5572 5574 5576 5576 5578 5578 5579 5578 5578 5578 5579 5581 5582 5582 5582 5582 5583 5584 5583 5583
5527 5526 5526 5525 5525 5525 5526 5526 5526 5528 5529 5530 5529 5529 5529 5531 5535 5538 5547 5554 5556 5557 5559 5561 5564 5566 5567 5568 5569 5570 5570 5570 5570 5571 5572 5573 5573 5574 5574 5574 5575 5575 5575
5516 5515 5515 5515 5515 5516 5517 5518 5519 5519 5520 5521 5521 5522 5522 5524 5526 5527 5532 5538 5543 5547 5548 5550 5553 5556 5557 5559 5560 5561 5562 5562 5563 5562 5563 5564 5565 5565 5565 5566 5566 5567 5568
5507 5506 5505 5505 5506 5508 5509 5510 5511 5511 5512 5513 5513 5514 5515 5516 5518 5519 5521 5524 5528 5534 5539 5542 5544 5545 5546 5548 5549 5551 5553 5554 5555 5554 5554 5556 5557 5557 5557 5558 5557 5558 5559
5498 5497 5496 5496 5498 5499 5500 5501 5501 5502 5504 5504 5505 5506 5507 5507 5508 5510 5511 5513 5516 5522 5527 5532 5534 5535 5536 5537 5539 5541 5542 5543 5545 5545 5546 5547 5548 5548 5548 5548 5548 5549 5549
5489 5488 5487 5487 5490 5490 5491 5492 5493 5493 5494 5495 5496 5497 5498 5498 5498 5500 5502 5502 5504 5510 5518 5521 5522 5524 5523 5525 5527 5529 5531 5533 5534 5535 5537 5538 5538 5539 5540 5540 5539 5540 5540
5480 5480 5479 5480 5481 5482 5482 5483 5483 5484 5486 5487 5488 5488 5488 5488 5489 5490 5491 5492 5493 5496 5502 5507 5508 5510 5511 5512 5514 5516 5520 5522 5523 5525 5528 5529 5530 5531 5531 5531 5531 5532 5531
5472 5472 5471 5472 5472 5473 5474 5475 5475 5476 5477 5478 5478 5479 5480 5480 5480 5481 5482 5482 5483 5485 5488 5494 5495 5497 5498 5499 5502 5504 5508 5511 5513 5516 5518 5520 5522 5523 5523 5522 5522 5522 5522
5464 5464 5463 5464 5465 5466 5466 5466 5467 5467 5468 5469 5470 5471 5471 5472 5473 5473 5473 5473 5475 5477 5477 5481 5485 5485 5487 5489 5491 5494 5497 5500 5503 5506 5509 5511 5513 5514 5514 5513 5513 5513 5513
5456 5456 5456 5456 5456 5457 5457 5458 5459 5460 5460 5461 5462 5463 5464 5464 5465 5465 5465 5466 5467 5468 5469 5471 5474 5475 5476 5478 5480 5483 5486 5489 5492 5495 5499 5502 5503 5504 5505 5504 5504 5504 5504
5449 5449 5449 5448 5448 5448 5449 5450 5451 5452 5453 5454 5455 5456 5456 5456 5457 5457 5458 5458 5459 5459 5460 5461 5463 5465 5466 5468 5469 5472 5476 5479 5482 5485 5488 5491 5493 5494 5494 5495 5495 5495 5495
5441 5441 5440 5440 5440 5441 5442 5443 5444 5445 5445 5446 5446 5447 5448 5448 5450 5449 5450 5450 5450 5451 5451 5452 5453 5455 5457 5458 5460 5462 5465 5469 5472 5474 5477 5481 5483 5485 5485 5485 5486 5486 5486
5433 5433 5432 5432 5433 5434 5435 5436 5437 5437 5437 5437 5438 5439 5439 5440 5441 5442 5443 5443 5443 5442 5442 5442 5444 5446 5448 5449 5450 5452 5454 5457 5461 5464 5466 5470 5473 5474 5475 5476 5477 5477 5477
5426 5426 5426 5426 5426 5426 5427 5429 5429 5429 5429 5429 5430 5431 5432 5432 5432 5433 5434 5435 5435 5434 5434 5434 5434 5436 5437 5439 5441 5443 5444 5446 5449 5452 5455 5459 5461 5463 5465 5466 5467 5469 5470
5418 5419 5419 5419 5419 5419 5421 5422 5422 5421 5421 5421 5422 5422 5423 5424 5424 5425 5426 5426 5426 5425 5425 5426 5427 5427 5428 5430 5432 5434 5435 5437 5440 5442 5445 5448 5451 5453 5456 5457 5459 5461 5462
5409 5409 5410 5411 5411 5411 5412 5414 5414 5413 5413 5413 5413 5414 5415 5416 5418 5419 5419 5419 5418 5418 5418 5418 5419 5420 5422 5423 5424 5424 5426 5429 5432 5434 5436 5439 5441 5443 5446 5449 5451 5453 5454
5401 5401 5402 5402 5402 5403 5404 5406 5407 5406 5406 5406 5406 5407 5408 5410 5411 5411 5411 5411 5411 5411 5410 5411 5412 5413 5414 5415 5416 5417 5419 5422 5424 5426 5428 5430 5433 5434 5438 5441 5442 5444 5445